FW7302 Weather Reports


Display with metric or nautical units.
time (UTC)temp
F
wind
direction
speed
MPH
gust
MPH
rain 1hr
in
rain 24hr
in
rain mn
in
humidity
%
barometer
mb
20260504023952 57 307 2.0 2.0 0.00 0.00 0.00 65 1012.7
20260504023449 57 306 2.0 2.0 0.00 0.00 0.00 65 1012.6
20260504022944 57 298 1.0 2.0 0.00 0.00 0.00 66 1012.8
20260504022441 58 310 1.0 1.0 0.00 0.00 0.00 65 1012.5
20260504021937 57 311 1.0 2.0 0.00 0.00 0.00 65 1012.6
20260504021435 57 293 2.0 2.0 0.00 0.00 0.00 66 1012.5
20260504020932 57 308 0.0 0.0 0.00 0.00 0.00 68 1012.3
20260504020428 57 303 0.0 0.0 0.00 0.00 0.00 68 1012.4
20260504015925 57 303 0.0 1.0 0.00 0.00 0.00 68 1012.3
20260504015421 58 304 0.0 1.0 0.00 0.00 0.00 66 1012.1
20260504014917 58 276 1.0 2.0 0.00 0.00 0.00 66 1012.2
20260504014414 58 301 0.0 1.0 0.00 0.00 0.00 67 1012.2
20260504013910 57 301 1.0 1.0 0.00 0.00 0.00 67 1012.1
20260504013409 58 305 0.0 0.0 0.00 0.00 0.00 67 1012.1
20260504012905 59 299 0.0 1.0 0.00 0.00 0.00 65 1012.1
20260504012403 59 310 0.0 1.0 0.00 0.00 0.00 64 1012.0
20260504011900 60 306 0.0 0.0 0.00 0.00 0.00 63 1012.1
20260504011357 60 278 1.0 1.0 0.00 0.00 0.00 62 1012.0
20260504010852 60 304 1.0 1.0 0.00 0.00 0.00 62 1012.1
20260504010348 60 305 0.0 1.0 0.00 0.00 0.00 61 1012.0
20260504005845 60 308 1.0 2.0 0.00 0.00 0.00 62 1011.7
20260504005342 60 302 1.0 1.0 0.00 0.00 0.00 62 1011.9
20260504004839 60 296 2.0 2.0 0.00 0.00 0.00 63 1011.9
20260504004337 60 303 1.0 1.0 0.00 0.00 0.00 62 1011.8
20260504003833 60 277 1.0 2.0 0.00 0.00 0.00 62 1011.7
20260504003330 60 274 1.0 2.0 0.00 0.00 0.00 62 1011.7
20260504002827 61 306 0.0 0.0 0.00 0.00 0.00 62 1011.6
20260504002324 61 306 1.0 1.0 0.00 0.00 0.00 61 1011.8
20260504001821 62 259 2.0 2.0 0.00 0.00 0.00 60 1011.4
20260504001319 62 298 1.0 1.0 0.00 0.00 0.00 60 1011.7
20260504000815 62 279 1.0 2.0 0.00 0.00 0.00 59 1011.7
20260504000312 62 301 0.0 1.0 0.00 0.00 0.00 60 1011.4
20260503235810 63 303 0.0 1.0 0.00 0.00 0.00 58 1011.6
20260503235307 64 284 1.0 2.0 0.00 0.00 0.00 55 1011.6
20260503234804 64 274 2.0 2.0 0.00 0.00 0.00 55 1011.6
20260503234257 64 285 2.0 2.0 0.00 0.00 0.00 54 1011.6
20260503233754 65 291 2.0 2.0 0.00 0.00 0.00 53 1011.6
20260503233249 65 288 3.0 3.0 0.00 0.00 0.00 51 1011.5
20260503232747 65 284 3.0 3.0 0.00 0.00 0.00 52 1011.6
20260503232244 66 267 3.0 3.0 0.00 0.00 0.00 50 1011.6
20260503231742 66 249 5.0 6.0 0.00 0.00 0.00 49 1011.6
20260503231239 66 276 3.0 3.0 0.00 0.00 0.00 50 1011.7
20260503230734 66 282 4.0 4.0 0.00 0.00 0.00 50 1011.7
20260503230231 66 279 5.0 6.0 0.00 0.00 0.00 48 1011.7
20260503225724 66 281 2.0 2.0 0.00 0.00 0.00 49 1011.7
20260503225224 66 299 4.0 4.0 0.00 0.00 0.00 47 1011.6
20260503224721 66 324 4.0 6.0 0.00 0.00 0.00 47 1011.7
20260503224219 67 298 4.0 6.0 0.00 0.00 0.00 46 1011.6
20260503223716 67 351 2.0 3.0 0.00 0.00 0.00 47 1011.6
20260503223214 68 347 4.0 4.0 0.00 0.00 0.00 46 1011.7
20260503222710 68 292 4.0 6.0 0.00 0.00 0.00 46 1011.8
20260503222208 68 265 6.0 7.0 0.00 0.00 0.00 44 1011.9
20260503221706 68 311 1.0 2.0 0.00 0.00 0.00 45 1011.7
20260503221203 68 306 3.0 4.0 0.00 0.00 0.00 45 1011.9
20260503220700 69 326 4.0 7.0 0.00 0.00 0.00 43 1011.8
20260503220156 69 330 3.0 4.0 0.00 0.00 0.00 44 1011.9
20260503215653 68 288 3.0 4.0 0.00 0.00 0.00 43 1011.9
20260503215149 69 305 7.0 8.0 0.00 0.00 0.00 44 1012.1
20260503214648 70 318 1.0 1.0 0.00 0.00 0.00 42 1011.8
20260503214143 68 320 1.0 1.0 0.00 0.00 0.00 43 1012.0
20260503213638 69 317 3.0 3.0 0.00 0.00 0.00 42 1012.0
20260503213134 68 319 6.0 7.0 0.00 0.00 0.00 46 1012.0
20260503212631 68 297 7.0 9.0 0.00 0.00 0.00 45 1012.0
20260503212129 69 282 9.0 9.0 0.00 0.00 0.00 41 1012.0
20260503211627 68 332 0.0 1.0 0.00 0.00 0.00 43 1012.1
20260503211121 68 326 1.0 2.0 0.00 0.00 0.00 43 1012.1
20260503210618 68 332 4.0 7.0 0.00 0.00 0.00 45 1012.2
20260503210114 70 338 6.0 7.0 0.00 0.00 0.00 43 1012.2
20260503205605 68 304 3.0 4.0 0.00 0.00 0.00 44 1012.3
20260503205101 69 326 4.0 6.0 0.00 0.00 0.00 46 1012.3
20260503204558 69 298 6.0 7.0 0.00 0.00 0.00 43 1012.3
20260503204056 67 293 2.0 2.0 0.00 0.00 0.00 44 1012.4
20260503203553 69 287 5.0 7.0 0.00 0.00 0.00 48 1012.7
20260503203050 70 4 1.0 1.0 0.00 0.00 0.00 42 1012.6
20260503202548 68 308 4.0 6.0 0.00 0.00 0.00 46 1012.7
20260503202045 66 324 8.0 11.0 0.00 0.00 0.00 45 1012.9
20260503201543 67 318 7.0 9.0 0.00 0.00 0.00 45 1012.9
20260503201040 68 333 1.0 2.0 0.00 0.00 0.00 46 1012.8
20260503200536 67 291 6.0 7.0 0.00 0.00 0.00 45 1013.1
20260503200033 67 300 8.0 9.0 0.00 0.00 0.00 45 1013.3
20260503195530 68 293 10.0 10.0 0.00 0.00 0.00 46 1013.4
20260503195026 67 314 3.0 3.0 0.00 0.00 0.00 45 1013.5
20260503194524 66 322 1.0 2.0 0.00 0.00 0.00 46 1013.3
20260503194023 68 277 10.0 11.0 0.00 0.00 0.00 46 1013.5
20260503193520 67 243 5.0 7.0 0.00 0.00 0.00 45 1013.8
20260503193015 67 319 1.0 1.0 0.00 0.00 0.00 46 1014.1
20260503192512 66 308 2.0 3.0 0.00 0.00 0.00 47 1014.2
20260503192008 66 300 9.0 10.0 0.00 0.00 0.00 48 1013.7
20260503191505 67 230 7.0 8.0 0.00 0.00 0.00 44 1014.3
20260503191001 67 314 7.0 8.0 0.00 0.00 0.00 44 1014.1
20260503190459 67 279 9.0 10.0 0.00 0.00 0.00 46 1014.2
20260503185956 67 310 5.0 6.0 0.00 0.00 0.00 46 1014.1
20260503185452 67 3 2.0 4.0 0.00 0.00 0.00 44 1014.3
20260503184951 66 315 11.0 13.0 0.00 0.00 0.00 46 1014.1
20260503184448 66 353 1.0 2.0 0.00 0.00 0.00 52 1014.4
20260503183944 67 279 3.0 3.0 0.00 0.00 0.00 43 1014.6
20260503183441 66 319 2.0 3.0 0.00 0.00 0.00 44 1014.6
20260503182938 66 269 7.0 10.0 0.00 0.00 0.00 45 1014.7
20260503182437 67 5 3.0 3.0 0.00 0.00 0.00 45 1014.5
20260503181934 66 315 0.0 1.0 0.00 0.00 0.00 49 1014.5
20260503181431 65 236 2.0 3.0 0.00 0.00 0.00 48 1014.7
20260503180927 64 295 2.0 2.0 0.00 0.00 0.00 47 1014.6
20260503180426 64 315 4.0 6.0 0.00 0.00 0.00 51 1014.8
20260503175922 65 261 6.0 7.0 0.00 0.00 0.00 47 1014.8
20260503175420 64 306 4.0 4.0 0.00 0.00 0.00 51 1014.7
20260503174915 65 293 4.0 7.0 0.00 0.00 0.00 45 1014.8
20260503174414 65 96 4.0 4.0 0.00 0.00 0.00 45 1014.7
20260503173909 64 317 4.0 6.0 0.00 0.00 0.00 47 1014.8
20260503173405 63 294 10.0 10.0 0.00 0.00 0.00 46 1014.8
20260503172902 64 295 4.0 4.0 0.00 0.00 0.00 49 1014.6
20260503172400 64 233 5.0 6.0 0.00 0.00 0.00 47 1015.0
20260503171856 65 284 1.0 2.0 0.00 0.00 0.00 43 1014.9
20260503171353 64 309 6.0 7.0 0.00 0.00 0.00 44 1015.3
20260503170850 64 303 5.0 6.0 0.00 0.00 0.00 43 1015.2
20260503170346 63 307 7.0 8.0 0.00 0.00 0.00 47 1015.4
20260503150739 60 232 5.0 6.0 0.00 0.00 0.00 49 1016.3
20260503150235 60 256 2.0 2.0 0.00 0.00 0.00 51 1016.4
20260503140159 58 321 1.0 1.0 0.00 0.00 0.00 62 1016.0
20260503131129 53 5 2.0 3.0 0.00 0.00 0.00 69 1015.9
20260503130626 53 22 2.0 2.0 0.00 0.00 0.00 71 1015.8
20260503130124 53 60 2.0 3.0 0.00 0.00 0.00 72 1015.8
20260503110516 40 330 0.0 0.0 0.00 0.00 0.00 99 1015.1
20260503090402 42 324 0.0 0.0 0.00 0.00 0.00 95 1013.4
20260503081329 41 318 0.0 0.0 0.00 0.00 0.00 96 1013.1
20260503080826 42 321 0.0 0.0 0.00 0.00 0.00 96 1013.0
20260503080323 42 321 0.0 0.0 0.00 0.00 0.00 96 1012.7
20260503072759 42 321 0.0 0.0 0.00 0.00 0.00 95 1012.6
20260503072256 42 319 0.0 0.0 0.00 0.00 0.00 95 1012.5
20260503071752 43 318 0.0 0.0 0.00 0.00 0.00 95 1012.3
20260503071250 43 318 0.0 0.0 0.00 0.00 0.00 95 1012.4
20260503070746 44 318 1.0 1.0 0.00 0.00 0.00 94 1012.4
20260503070244 44 320 0.0 0.0 0.00 0.00 0.00 94 1012.4
20260503060203 45 319 0.0 0.0 0.00 0.00 0.00 99 1012.1
20260503054650 44 322 0.0 0.0 0.00 0.00 0.00 99 1012.2
20260503054147 44 316 0.0 0.0 0.00 0.00 0.00 99 1012.1
20260503053645 44 316 0.0 0.0 0.00 0.00 0.00 99 1012.2
20260503053144 45 324 0.0 0.0 0.00 0.00 0.00 98 1012.2
20260503052640 45 325 0.0 0.0 0.00 0.00 0.00 98 1012.2
20260503052136 45 312 0.0 0.0 0.00 0.00 0.00 98 1012.2
20260503051631 45 312 0.0 0.0 0.00 0.00 0.00 98 1012.1
20260503051129 45 313 1.0 1.0 0.00 0.00 0.00 98 1012.4
20260503050626 45 313 0.0 0.0 0.00 0.00 0.00 98 1012.3
20260503050122 45 313 0.0 0.0 0.00 0.00 0.00 98 1012.2
20260503045620 45 313 0.0 0.0 0.00 0.00 0.00 98 1012.5
20260503045117 46 313 0.0 0.0 0.00 0.00 0.00 98 1012.1
20260503044613 46 315 0.0 0.0 0.00 0.00 0.00 97 1012.2
20260503044111 47 314 0.0 0.0 0.00 0.00 0.00 97 1012.1
20260503043607 48 317 0.0 0.0 0.00 0.00 0.00 97 1012.1
20260503043104 48 330 0.0 1.0 0.00 0.00 0.00 97 1012.0
20260503042601 48 338 1.0 1.0 0.00 0.00 0.00 97 1012.0
20260503042057 48 326 1.0 1.0 0.00 0.00 0.00 97 1011.9
20260503041554 48 321 0.0 1.0 0.00 0.00 0.00 97 1011.9
20260503041052 48 324 0.0 0.0 0.00 0.00 0.00 97 1011.8
20260503040549 47 324 0.0 0.0 0.00 0.00 0.00 97 1011.8
20260503040046 47 324 0.0 0.0 0.00 0.04 0.04 96 1012.0
20260503035543 47 317 0.0 0.0 0.00 0.04 0.04 96 1011.6
20260503035040 48 318 0.0 0.0 0.00 0.04 0.04 95 1011.6
20260503034537 48 318 0.0 0.0 0.00 0.04 0.04 95 1011.5
20260503034035 48 317 0.0 0.0 0.00 0.04 0.04 94 1011.5
20260503033532 48 317 0.0 0.0 0.00 0.04 0.04 93 1011.3
20260503033029 49 314 2.0 2.0 0.00 0.04 0.04 92 1011.4
20260503032528 49 324 0.0 0.0 0.00 0.04 0.04 92 1011.5
20260503032025 49 323 0.0 0.0 0.00 0.04 0.04 91 1011.4
20260503031523 49 321 0.0 0.0 0.00 0.04 0.04 90 1011.5
20260503031020 50 321 0.0 0.0 0.00 0.04 0.04 90 1011.4
20260503030516 50 325 0.0 0.0 0.00 0.04 0.04 91 1011.3
20260503030013 50 324 0.0 0.0 0.00 0.04 0.04 91 1011.3
20260503025510 50 323 0.0 0.0 0.00 0.04 0.04 92 1011.2
20260503025008 51 311 0.0 0.0 0.00 0.04 0.04 91 1011.3
20260503024504 51 324 0.0 0.0 0.00 0.04 0.04 91 1011.2